Location: �quirre
(50.4736°N, 2.2351°E)
Time: 07:28:29
(UTC+00:00)

GEOS 3 Rocket - Pass Details

Date: 07 August 2020
Orbit: 770 x 849 km, 115.0° (Epoch: 26 September)

Event Time Altitude Azimuth Distance (km) Brightness Sun altitude
Rises 00:34:09 0° 44° (NE) 3,417 7.7 -22.7°
Reaches altitude 10° 00:36:34 10° 51° (NE) 2,481 6.8 -22.6°
Maximum altitude 00:41:48 47° 125° (SE) 1,108 4.1 -22.5°
Enters shadow 00:42:44 43° 155° (SSE) 1,177 4.1 -22.4°
